Location: Biltmore Gardens
(41.6070°N, 83.4666°W)
Time: 14:29:33
(UTC+00:00)

GEOS 3 Rocket - Pass Details

Date: 14 July 2020
Orbit: 771 x 848 km, 115.0° (Epoch: 04 August)

Event Time Altitude Azimuth Distance (km) Brightness Sun altitude
Rises 03:45:52 0° 34° (NE) 3,413 7.2 -21.5°
Reaches altitude 10° 03:48:12 10° 33° (NNE) 2,477 6.5 -21.7°
Maximum altitude 03:53:36 75° 309° (NW) 880 3.8 -22.2°
Enters shadow 03:58:53 10° 225° (SW) 2,429 5.9 -22.6°
